User: anonymous   Login
Location: Unspecified
(0.0000°N, 0.0000°E)
Time: 01:16:54
(UTC+00:00)
Language:

Vanguard 3 - Orbit

View from above orbital plane
View from above orbital plane
View from above satellite
View from above satellite

Ground track
Ground track

The orbit data is extracted from the following two-line orbital elements,

1    20U 59007A   19200.53549992  .00000214  00000-0  74902-4 0  9994
2    20  33.3553 291.6325 1667761 295.4165  48.3188 11.55664886191991
Epoch (UTC): 19 July 2019 12:51:07
Eccentricity: 0.1667761
inclination: 33.3553°
perigee height: 507 km
apogee height: 3264 km
right ascension of ascending node: 291.6325°
argument of perigee: 295.4165°
revolutions per day: 11.55664886
mean anomaly at epoch: 48.3188°
orbit number at epoch: 19199

The dashed part of the orbit path shows where the satellite is in the earth's shadow,  

DLR